EST,Max TemperatureF,Mean TemperatureF,Min TemperatureF,Max Dew PointF,MeanDew PointF,Min DewpointF,Max Humidity, Mean Humidity, Min Humidity, Max Sea Level PressureIn, Mean Sea Level PressureIn, Min Sea Level PressureIn, Max VisibilityMiles, Mean VisibilityMiles, Min VisibilityMiles, Max Wind SpeedMPH, Mean Wind SpeedMPH, Max Gust SpeedMPH,PrecipitationIn, CloudCover, Events, WindDirDegrees
2012-11-1,57,50,44,41,39,37,82,65,49,29.56,29.52,29.48,10,10,10,13,5,20,0.00,5,,233
2012-11-2,53,48,44,41,38,35,83,71,50,29.59,29.54,29.51,10,10,10,10,6,,0.14,6,Rain,273
2012-11-3,53,48,42,36,33,30,74,61,47,29.77,29.67,29.59,10,10,2,16,7,21,0.00,4,,298
2012-11-4,54,45,37,34,31,27,76,61,47,29.93,29.85,29.77,10,10,10,16,8,24,0.00,2,,307
2012-11-5,44,37,28,27,22,16,65,53,38,30.12,30.00,29.94,10,10,10,14,9,18,0.00,5,,332
2012-11-6,43,34,24,21,18,14,81,57,32,30.22,30.18,30.12,10,10,10,9,4,,0.00,0,,320
2012-11-7,43,36,30,33,29,23,92,75,58,30.15,29.92,29.75,10,6,1,24,13,40,0.23,8,Rain-Snow,20
2012-11-8,39,36,32,36,33,28,93,87,77,29.76,29.66,29.60,10,4,1,25,19,43,0.38,8,Rain-Snow,359
2012-11-9,53,45,37,32,27,20,73,53,30,30.08,29.90,29.73,10,10,10,18,13,24,0.00,2,,309
2012-11-10,55,45,33,33,29,23,89,62,31,30.45,30.27,30.07,10,10,10,14,5,20,0.00,0,,300
2012-11-11,63,48,33,46,41,30,89,71,48,30.49,30.45,30.39,10,10,7,13,4,,0.00,4,,190
2012-11-12,68,59,50,56,51,44,94,78,52,30.47,30.38,30.22,10,8,2,14,8,20,0.00,2,,181
2012-11-13,66,54,41,60,46,30,89,80,61,30.40,30.23,30.10,10,9,4,15,9,25,0.28,7,Rain,287
2012-11-14,46,40,35,31,25,22,70,58,42,30.53,30.47,30.41,10,10,10,15,7,23,0.00,1,,3
2012-11-15,42,36,30,30,28,24,89,73,60,30.45,30.38,30.30,10,10,10,13,8,18,0.00,4,,357
2012-11-16,46,38,30,31,29,24,88,73,55,30.41,30.32,30.28,10,10,10,9,5,,0.00,1,,355
2012-11-17,46,37,28,32,27,23,89,71,54,30.65,30.57,30.42,10,9,5,8,5,,0.00,1,,359
2012-11-18,48,37,26,33,27,22,89,75,46,30.71,30.66,30.62,10,9,6,13,4,,0.00,1,,10
2012-11-19,48,37,26,36,30,21,89,72,60,30.60,30.45,30.26,10,10,7,9,5,,0.00,3,,4
2012-11-20,48,36,25,36,29,22,93,78,58,30.25,30.18,30.14,10,8,2,8,3,,0.00,1,,1
2012-11-21,50,43,36,41,36,26,87,74,58,30.26,30.22,30.15,10,10,9,12,7,18,0.00,5,,8
2012-11-22,54,44,33,41,37,30,100,86,53,30.28,30.19,30.12,10,5,0,8,3,,0.00,1,Fog,68
2012-11-23,52,42,32,43,37,30,100,87,63,30.10,29.95,29.63,10,4,0,12,2,,0.00,1,Fog,180
2012-11-24,48,40,33,43,27,14,86,56,34,29.62,29.56,29.50,10,10,10,22,9,30,0.00,4,,277
2012-11-25,39,34,30,21,15,6,64,47,28,29.84,29.73,29.63,10,10,10,18,10,28,0.00,2,,261
2012-11-26,46,37,28,24,21,17,69,54,34,30.23,30.02,29.84,10,10,10,17,8,23,0.00,1,,263
2012-11-27,37,32,26,34,30,20,93,86,69,30.32,30.27,30.22,10,5,2,9,1,,0.07,7,Rain-Snow,308
2012-11-28,36,32,27,30,25,21,89,75,59,30.22,30.15,30.11,10,10,5,12,7,,0.00,6,Snow,348
2012-11-29,42,35,28,23,21,19,75,56,43,30.24,30.17,30.13,10,10,10,16,8,21,0.00,2,,249
2012-11-30,39,34,30,24,12,6,59,44,32,30.55,30.44,30.20,10,10,10,16,8,22,0.00,5,,351